Regional Weather Roundup
Issued by NWS Sioux Falls, SD

Home | Current Version | Previous Version | Text Only | Print | Product List | Glossary On
Versions: 1 2 3 4 5 6 7 8 9 10 11 12 13 14 15 16 17 18 19 20 21 22 23 24 25 26 27 28 29 30 31 32 33 34 35 36 37 38 39 40 41 42 43 44 45 46 47 48 49 50
000
ASUS43 KFSD 250810
RWRFSD

WEATHER ROUNDUP FOR SE SOUTH DAKOTA/SW MINNESOTA/NW IOWA
NATIONAL WEATHER SERVICE SIOUX FALLS SD
300 AM CDT MON JUL 25 2016

NOTE: "FAIR" INDICATES FEW OR NO CLOUDS BELOW 12,000 FEET WITH NO
SIGNIFICANT WEATHER AND OR OBSTRUCTIONS TO VISIBILITY.


SDZ038>040-050-052>070-250900-
SOUTHEAST SOUTH DAKOTA

CITY           SKY/WX    TMP DP  RH WIND       PRES   REMARKS
BROOKINGS      CLEAR     64  60  87 CALM      30.09
CHAMBERLAIN    CLEAR     63  58  84 CALM      30.08F
HURON          CLEAR     66  56  70 S6        30.06S
MADISON        FAIR      63  63 100 W5        30.10S
MITCHELL       CLEAR     65  61  87 SW3       30.08F
SIOUX FALLS    CLEAR     64  58  80 CALM      30.08S
WINNER         FAIR      72  53  51 S7        30.10F
YANKTON        CLEAR     63  57  82 NW5       30.07S
$$

MNZ071-072-080-081-089-090-097-098-250900-
SOUTHWEST MINNESOTA

CITY           SKY/WX    TMP DP  RH WIND       PRES   REMARKS
FAIRMONT       CLEAR     64  61  88 CALM      30.04S
JACKSON        CLEAR     63  59  88 W3        30.07S
LUVERNE        CLEAR     61  57  88 CALM      30.09S
MARSHALL       CLEAR     63  60  90 W5        30.06S
MONTEVIDEO     PTCLDY    64  61  88 W3        30.06R
REDWOOD FALLS  CLEAR     67  61  81 W6        30.04R
TRACY          CLEAR     68  62  81 W5        30.07R
WINDOM         CLEAR     63  61  94 W3        30.07S
WORTHINGTON    CLEAR     62  60  93 W6        30.08F
$$

IAZ001>003-012>014-020>022-031-032-NEZ013-014-SDZ071-250900-
NORTHWEST IOWA

CITY           SKY/WX    TMP DP  RH WIND       PRES   REMARKS
CHEROKEE       CLEAR     65  63  90 NE5       30.07S
ESTHERVILLE    CLEAR     61  61 100 NW5       30.06F
LE MARS        CLEAR     63  61  94 CALM      30.08S
SHELDON        CLEAR     61  61 100 CALM      30.07S
SIOUX CITY     CLEAR     63  60  90 W5        30.06F
SPENCER        CLEAR     61  59  93 CALM      30.08R
STORM LAKE     CLEAR     64  63  94 NW5       30.08S
$$

ABBREVIATIONS USED IN REMARKS
   TC - TEMPERATURE IN CELSIUS
  WCI - WIND CHILL INDEX
   HX - HEAT INDEX
  VSB - VISIBILITY




USA.gov is the U.S. government's official web portal to all federal, state and local government web resources and services.